sat.trackr.live / text

‹ back to catalog

STARLINK-2703

NORAD 48452 · 2021-040AA

PAYLOAD ACTIVE UNKNOWN

§ Identity

Operator
Country
US
Launch date
2021-05-09
Launch site
AFETR
Launch vehicle
Mass (kg)
RCS (m²)

Purposes: comms

External: N2YO · Heavens-Above · Gunter

§ Orbital elements

Epoch: 2026-09-19T23:22:19.163424Z

Period
94.01 min
Inclination
53.1645°
Eccentricity
0.0000615
Mean motion
15.31704619 rev/d
Perigee alt
470.3 km
Apogee alt
471.1 km
Semi-major
6,848.9 km
B*
-4.9848e-6
RAAN
353.9646°
Arg perigee
72.1117°
Mean anomaly
287.9951°
Rev number
29,645

§ Raw data

STARLINK-27031 48452U 21040AA  26262.97383291 -.00000519  00000+0 -49848-5 0  99942 48452  53.1645 353.9646 0000615  72.1117 287.9951 15.31704619296450

JSON: /api/v1/satellites/48452 · /tle

For live sub-satellite position, see the globe view (requires WebGL).

§ Visibility from observer

Set your observer location to see the next 7 days of passes ≥ 10°. The values pass through the URL so the page stays shareable.

No JS? Fill the form by hand. The geolocation button needs JavaScript.